Location: Bern�tre
(50.1974°N, 2.0915°E)
Time: 08:46:51
(UTC+00:00)

Timation 1 Rocket - Pass Details

Date: 18 September 2020
Orbit: 897 x 910 km, 70.0° (Epoch: 24 October)

Event Time Altitude Azimuth Distance (km) Brightness Sun altitude
Rises 18:23:59 0° 206° (SSW) 3,502 7.7 -5.0°
Reaches altitude 10° 18:26:27 10° 206° (SSW) 2,567 7.0 -5.4°
Maximum altitude 18:32:24 85° 119° (ESE) 910 4.4 -6.3°
Drops below altitude 10° 18:38:24 10° 32° (NNE) 2,590 6.5 -7.3°
Sets 18:40:54 0° 32° (NNE) 3,537 7.2 -7.7°
